Change the Weather History Date:

Sunday, March 30, 2014

  Actual Average Record
Temperature  
Mean Temperature 37 °F -  
Max Temperature 46 °F 42 °F 60 °F (2015)
Min Temperature 28 °F 23 °F 6 °F (1998)
Degree Days  
Heating Degree Days 28    
Moisture  
Dew Point 13 °F    
Average Humidity 32    
Maximum Humidity 59    
Minimum Humidity 23    
Precipitation  
Precipitation 0.00 in - - ()
Sea Level Pressure  
Sea Level Pressure 29.95 in    
Wind  
Wind Speed 13 mph (SSE)    
Max Wind Speed 29 mph    
Max Gust Speed 58 mph    
Visibility 10 miles    
Events      
Averages and records for this station are not official NWS values.
T = Trace of Precipitation, MM = Missing Value Source: NWS Daily Summary

Daily Weather History Graph

Daily Weather History Graph

Search for Another Location

Airport or City:

Trip Planner

Search our weather history database for the weather conditions in past years. The results will help you decide how hot, cold, wet, or windy it might be!

Date:

Astronomy

Mar. 30, 2014 Rise Set
Actual Time 6:59 AM MDT 7:32 PM MDT
Civil Twilight 6:33 AM MDT 7:59 PM MDT
Nautical Twilight 6:02 AM MDT 8:30 PM MDT
Astronomical Twilight 5:30 AM MDT 9:02 PM MDT
Moon 6:47 AM MDT (3/30) 7:48 PM MDT (3/30)
Length of Visible Light 13h 26m
Length of Day
12h 33m
Waning Crescent, 0% of the Moon is Illuminated
Mar 30
Waning Crescent
Mar 30
New
Apr 7
First Quarter
Apr 15
Full
Apr 22
Last Quarter

Hourly Weather History & Observations

Time (MDT) Temp. Windchill Dew Point Humidity Pressure Visibility Wind Dir Wind Speed Gust Speed Precip Events Conditions
12:17 AM 42.8 °F 38.0 °F 12.2 °F 29% 30.16 in 10.0 mi East 8.1 mph - N/A   Clear
12:37 AM 42.8 °F 39.3 °F 12.2 °F 29% 30.15 in 10.0 mi East 5.8 mph - N/A   Clear
12:57 AM 42.8 °F 38.6 °F 12.2 °F 29% 30.14 in 10.0 mi East 6.9 mph - N/A   Clear
1:19 AM 42.8 °F 37.5 °F 12.2 °F 29% 30.12 in 10.0 mi East 9.2 mph - N/A   Clear
1:57 AM 42.8 °F 36.6 °F 14.0 °F 31% 30.10 in 10.0 mi ESE 11.5 mph - N/A   Clear
2:17 AM 42.8 °F 36.2 °F 12.2 °F 29% 30.10 in 10.0 mi ESE 12.7 mph - N/A   Clear
2:37 AM 44.6 °F 38.8 °F 12.2 °F 27% 30.09 in 10.0 mi East 11.5 mph 17.3 mph N/A   Clear
2:57 AM 44.6 °F 38.1 °F 12.2 °F 27% 30.09 in 10.0 mi SE 13.8 mph 20.7 mph N/A   Clear
3:17 AM 44.6 °F 40.2 °F 12.2 °F 27% 30.09 in 10.0 mi SSE 8.1 mph 23.0 mph N/A   Clear
3:37 AM 44.6 °F 38.4 °F 12.2 °F 27% 30.07 in 10.0 mi ESE 12.7 mph 26.5 mph N/A   Clear
3:57 AM 44.6 °F 37.2 °F 12.2 °F 27% 30.06 in 10.0 mi ESE 17.3 mph 21.9 mph N/A   Clear
4:20 AM 44.6 °F 38.1 °F 12.2 °F 27% 30.06 in 10.0 mi SE 13.8 mph 26.5 mph N/A   Clear
4:39 AM 42.8 °F 36.2 °F 12.2 °F 29% 30.05 in 10.0 mi SSE 12.7 mph 24.2 mph N/A   Clear
4:57 AM 42.8 °F 34.5 °F 14.0 °F 31% 30.05 in 10.0 mi SE 18.4 mph 21.9 mph N/A   Clear
5:58 AM 42.8 °F 34.8 °F 14.0 °F 31% 30.04 in 10.0 mi ESE 17.3 mph 29.9 mph N/A   Clear
6:17 AM 42.8 °F 35.8 °F 15.8 °F 34% 30.04 in 10.0 mi ESE 13.8 mph 21.9 mph N/A   Clear
6:39 AM 42.8 °F 35.4 °F 15.8 °F 34% 30.02 in 10.0 mi SE 15.0 mph 24.2 mph N/A   Clear
6:59 AM 42.8 °F 34.5 °F 15.8 °F 34% 30.01 in 10.0 mi SE 18.4 mph 21.9 mph N/A   Clear
7:37 AM 41.0 °F 33.9 °F 15.8 °F 36% 30.01 in 10.0 mi SSE 12.7 mph 24.2 mph N/A   Scattered Clouds
7:57 AM 42.8 °F 36.2 °F 15.8 °F 34% 30.02 in 10.0 mi SE 12.7 mph 21.9 mph N/A   Mostly Cloudy
8:17 AM 42.8 °F 35.8 °F 14.0 °F 31% 30.02 in 10.0 mi SSE 13.8 mph - N/A   Overcast
8:37 AM 42.8 °F 37.5 °F 14.0 °F 31% 30.01 in 10.0 mi ESE 9.2 mph 17.3 mph N/A   Overcast
9:39 AM 44.6 °F 38.4 °F 10.4 °F 25% 29.99 in 10.0 mi SSE 12.7 mph 17.3 mph N/A   Mostly Cloudy
10:18 AM 44.6 °F 39.7 °F 12.2 °F 27% 29.98 in 10.0 mi SSE 9.2 mph 24.2 mph N/A   Scattered Clouds
10:38 AM 46.4 °F 42.9 °F 10.4 °F 23% 29.97 in 10.0 mi SSW 6.9 mph 24.2 mph N/A   Scattered Clouds
10:57 AM 46.4 °F 39.8 °F 10.4 °F 23% 29.96 in 10.0 mi South 16.1 mph 28.8 mph N/A   Scattered Clouds
11:17 AM 46.4 °F 41.1 °F 10.4 °F 23% 29.96 in 10.0 mi South 11.5 mph 25.3 mph N/A   Mostly Cloudy
11:40 AM 46.4 °F 41.1 °F 10.4 °F 23% 29.96 in 10.0 mi SE 11.5 mph 21.9 mph N/A   Mostly Cloudy
12:17 PM 46.4 °F 38.7 °F 10.4 °F 23% 29.93 in 10.0 mi South 20.7 mph 33.4 mph N/A   Scattered Clouds
12:37 PM 44.6 °F 36.1 °F 10.4 °F 25% 29.93 in 10.0 mi South 21.9 mph 34.5 mph N/A   Scattered Clouds
12:58 PM 44.6 °F 38.4 °F 10.4 °F 25% 29.93 in 10.0 mi SSE 12.7 mph 28.8 mph N/A   Mostly Cloudy
1:17 PM 44.6 °F 38.1 °F 12.2 °F 27% 29.91 in 10.0 mi South 13.8 mph 32.2 mph N/A   Overcast
1:39 PM 42.8 °F 34.5 °F 14.0 °F 31% 29.89 in 10.0 mi South 18.4 mph 29.9 mph N/A   Overcast
2:17 PM 42.8 °F 35.1 °F 19.4 °F 39% 29.87 in 10.0 mi SSE 16.1 mph 24.2 mph N/A   Overcast
2:57 PM 42.8 °F 38.0 °F 17.6 °F 36% 29.84 in 10.0 mi ESE 8.1 mph 28.8 mph N/A   Overcast
3:17 PM 42.8 °F 35.4 °F 17.6 °F 36% 29.83 in 10.0 mi SSE 15.0 mph 27.6 mph N/A   Mostly Cloudy
3:37 PM 42.8 °F 35.1 °F 15.8 °F 34% 29.79 in 10.0 mi SSE 16.1 mph 25.3 mph N/A   Mostly Cloudy
3:58 PM 44.6 °F 36.4 °F 14.0 °F 29% 29.78 in 10.0 mi SSE 20.7 mph 35.7 mph N/A   Scattered Clouds
4:17 PM 44.6 °F 43.1 °F 15.8 °F 31% 29.75 in 10.0 mi South 3.5 mph 26.5 mph N/A   Mostly Cloudy
4:39 PM 44.6 °F 35.9 °F 14.0 °F 29% 29.71 in 10.0 mi South 23.0 mph 38.0 mph N/A   Overcast
5:00 PM 44.6 °F 38.1 °F 12.2 °F 27% 29.73 in 10.0 mi SW 13.8 mph 28.8 mph N/A   Mostly Cloudy
5:17 PM 44.6 °F 34.9 °F 12.2 °F 27% 29.72 in 7.0 mi South 28.8 mph 42.6 mph N/A   Overcast
5:57 PM 44.6 °F 35.1 °F 10.4 °F 25% 29.71 in 3.0 mi SSW 27.6 mph 57.5 mph N/A   Haze
6:17 PM 42.8 °F 34.0 °F 15.8 °F 34% 29.74 in 2.5 mi SSW 20.7 mph 47.2 mph N/A   Haze
7:17 PM 39.2 °F 28.7 °F 17.6 °F 42% 29.80 in 7.0 mi SSW 23.0 mph 42.6 mph N/A   Overcast
7:59 PM 35.6 °F 25.5 °F 15.8 °F 44% 29.86 in 10.0 mi WSW 17.3 mph 44.9 mph N/A   Overcast
8:19 PM 33.8 °F 23.2 °F 10.4 °F 38% 29.89 in 10.0 mi SW 17.3 mph 32.2 mph N/A   Overcast
8:37 PM 33.8 °F 24.3 °F 3.2 °F 28% 29.89 in 10.0 mi SW 13.8 mph 33.4 mph N/A   Scattered Clouds
8:59 PM 32.0 °F 24.2 °F 5.0 °F 32% 29.92 in 10.0 mi SW 9.2 mph 29.9 mph N/A   Scattered Clouds
9:17 PM 32.0 °F 18.4 °F 6.8 °F 35% 29.91 in 10.0 mi SW 26.5 mph 33.4 mph N/A   Mostly Cloudy
9:37 PM 30.2 °F 18.5 °F 6.8 °F 37% 29.93 in 10.0 mi WSW 17.3 mph 27.6 mph N/A   Scattered Clouds
9:57 PM 30.2 °F 20.2 °F 8.6 °F 40% 29.93 in 10.0 mi SW 12.7 mph 27.6 mph N/A   Mostly Cloudy
10:19 PM 30.2 °F 19.3 °F 10.4 °F 44% 29.94 in 10.0 mi West 15.0 mph 21.9 mph N/A   Overcast
10:57 PM 30.2 °F 21.3 °F 12.2 °F 47% 29.95 in 10.0 mi WSW 10.4 mph 19.6 mph N/A   Overcast
11:37 PM 28.4 °F 23.3 °F 14.0 °F 55% 29.95 in 10.0 mi SW 4.6 mph - N/A   Overcast
11:57 PM 28.4 °F 17.5 °F 15.8 °F 59% 29.96 in 10.0 mi WSW 13.8 mph - N/A   Overcast